Zurück zum Katalog

HYDRA-2

AktivWissenschaftSSO
NORAD 67389·PAYLOAD·🇪🇸 Spain

Gestartet Jan 11, 2026 von Vandenberg Space Force Base

Loading…

Nächste Überflüge (nächste 24 Stunden)

TLE

AktuellSource: Space-Track

Epoche: Sep 13, 2026, 22:20 UTC

1 67389U 26004AC  26256.93116534  .00003528  00000-0  17016-3 0  9994
2 67389  97.4639 254.8885 0004533  48.9319 311.2306 15.19341582 37221

Verfolge HYDRA-2 in Echtzeit mit AllMySat

Download on the App Store